#timestamp,LO_Frequency,Hit,StdDev 
1557594015.8,286047000.5,N
1557594035.6,286046998.6,N
1557594055.5,286047000.4,N
1557594075.3,286047000.2,N
1557594095.1,286047000.2,N
1557594115.9,286046999.9,N
1557594135.7,286047000.5,N
1557594155.5,286047001.3,N
1557594175.4,286047001.9,N
1557594195.2,286047000.9,N
1557594215.1,286046999.9,N
1557594216.0,286046999.9,N
1557594235.8,286047002.2,N
1557594255.6,286047002.1,N
1557594275.5,286047002.1,N
1557594295.3,286047003.9,N
1557594315.1,286047000.5,N
1557594335.9,286047002.0,N
1557594355.7,286047002.1,N
1557594375.6,286047004.0,N
1557594395.4,286047002.4,N
1557594415.2,286047002.7,N
1557594435.1,286047000.2,N
1557594436.0,286047000.2,N
1557594455.8,286047001.0,N
1557594475.7,286047000.8,N
1557594495.5,286047000.5,N
1557594515.3,286047002.6,N
1557594535.2,286047002.6,N
1557594555.9,286047001.4,N
1557594575.7,286047003.2,N
1557594595.6,286047004.1,Y
1557594615.4,286047001.3,P
1557594635.3,286047001.8,P
1557594655.1,286047000.4,N
1557594656.0,286047000.4,N
1557594675.8,286047000.7,N
1557594695.7,286046998.1,Y
1557594715.5,286046998.2,P
1557594735.3,286047000.5,N
1557594755.2,286047001.5,N
1557594775.0,286047004.0,Y
1557594775.9,286047004.0,P
1557594795.8,286046999.7,N
1557594815.6,286047002.4,N
1557594835.4,286046999.5,N
1557594855.3,286046999.5,N
1557594875.1,286046998.4,N
1557594895.8,286046998.8,N
1557594915.7,286046999.5,N
1557594935.5,286046999.1,N
1557594955.4,286047000.0,N
1557594975.2,286047000.7,N
1557594995.0,286046998.7,N
1557594995.9,286046998.7,N
1557595015.8,286046999.9,N
1557595035.6,286047000.6,N
1557595055.5,286046999.2,N
1557595075.3,286046998.2,N
1557595095.1,286046998.7,N
1557595115.9,286047002.4,N
1557595135.7,286046999.9,N
1557595155.5,286046998.7,N
1557595175.4,286046998.3,N
1557595195.2,286046998.4,N
1557595215.1,286047000.4,N
1557595216.0,286047000.4,N
1557595235.8,286047000.6,N
1557595255.6,286046999.9,N
1557595275.5,286047000.5,N
1557595295.3,286046999.7,N
1557595315.1,286046999.9,N
1557595335.9,286047002.4,N
1557595355.7,286047000.7,N
1557595375.6,286047002.8,N
1557595395.4,286047002.4,N
1557595415.2,286047003.1,N
1557595435.1,286047003.7,N
1557595436.0,286047003.7,N
1557595455.8,286047003.8,N
1557595475.7,286047002.8,N
1557595495.5,286046999.9,N
1557595515.3,286046999.8,N
1557595535.2,286046998.6,N
1557595555.9,286047000.6,N
1557595575.7,286047000.1,N
1557595595.6,286046998.8,N
1557595615.4,286047004.2,N
1557595635.3,286047002.6,N
1557595655.1,286047000.5,N
1557595656.0,286047000.5,N
1557595675.8,286047002.4,N
1557595695.7,286047002.0,N
1557595715.5,286047000.3,N
1557595735.3,286047000.1,N
1557595755.2,286047001.8,N
1557595775.0,286047001.9,N
1557595775.9,286047001.9,N
1557595795.8,286047003.1,N
1557595815.6,286047003.6,N
1557595835.4,286047001.8,N
1557595855.3,286047000.4,N
1557595875.1,286047001.1,N
1557595895.9,286046998.6,N
1557595915.7,286046999.3,N
1557595935.5,286046998.7,N
1557595955.4,286046999.1,N
1557595975.2,286046997.2,N
1557595995.0,286046996.5,N
1557595995.9,286046996.5,N
1557596015.8,286046998.4,N
1557596035.6,286046999.6,N
1557596055.5,286046998.5,N
1557596075.3,286047001.1,N
1557596095.1,286046998.3,N
1557596115.9,286046999.2,N
1557596135.7,286046998.8,N
1557596155.5,286047000.8,N
1557596175.4,286047000.0,N
1557596195.2,286046998.4,N
1557596215.1,286047002.5,N
1557596216.0,286047002.5,N
1557596235.8,286046999.7,N
1557596255.6,286046998.9,N
1557596275.5,286046999.6,N
1557596295.3,286047000.2,N
1557596315.1,286047001.6,N
1557596335.9,286047000.6,N
1557596355.7,286047002.2,N
1557596375.6,286046999.1,N
1557596395.4,286046999.3,N
1557596415.2,286047000.8,N
1557596435.1,286046998.1,N
1557596436.0,286046998.1,N
1557596455.8,286047001.0,N
1557596475.7,286046999.2,N
1557596495.5,286046998.3,N
1557596515.3,286046999.0,N
1557596535.2,286046998.3,N
1557596555.9,286046998.1,N
1557596575.7,286046998.2,N
1557596595.6,286046996.5,N
1557596615.4,286046999.4,N
1557596635.3,286047004.4,Y
1557596655.1,286047001.7,P
1557596656.0,286047001.7,N
1557596675.8,286047003.9,P
1557596695.7,286047003.2,N
1557596715.5,286047003.7,N
1557596735.3,286047003.5,N
1557596755.2,286047004.2,N
1557596775.0,286047006.0,Y
1557596775.9,286047006.0,P
1557596795.8,286046998.1,N
1557596815.6,286046999.4,N
1557596835.4,286046996.8,N
1557596855.3,286046996.6,N
1557596875.1,286046998.5,N
1557596895.8,286047000.4,N
1557596915.7,286046999.9,N
1557596935.5,286046999.8,N
1557596955.4,286047000.0,N
1557596975.2,286047002.5,N
1557596995.0,286047000.1,N
1557596995.9,286047000.1,N
1557597015.8,286047001.5,N
1557597035.6,286047000.0,N
1557597055.4,286047002.5,N
1557597075.3,286047002.4,N
1557597095.1,286047002.7,N
1557597115.9,286047001.4,N
1557597135.7,286047003.0,N
1557597155.5,286047005.1,N
1557597175.4,286047004.4,N
1557597195.2,286047001.7,N
1557597215.0,286047002.9,N
1557597215.9,286047002.9,N
1557597235.8,286047005.5,N
1557597255.6,286047002.2,N
1557597275.5,286046998.2,N
1557597295.3,286047000.4,N
1557597315.1,286047002.4,N
1557597335.9,286046999.9,N
1557597355.7,286047000.8,N
1557597375.5,286047000.6,N
1557597395.4,286046998.5,N
1557597415.2,286047001.1,N
1557597435.1,286046998.5,N
1557597436.0,286046998.5,N
1557597455.8,286046997.8,N
1557597475.6,286046996.7,N
1557597495.5,286046999.5,N
1557597515.3,286046997.6,N
1557597535.1,286046997.6,N
1557597555.9,286046997.7,N
1557597575.7,286046997.5,N
1557597595.6,286046997.0,N
